THOR ABLESTAR DEB, 417

Orbit data source: Space-Track

THOR ABLESTAR DEB, 417 is space debris in LEO originally from a launch on Thu, 29 Jun 1961 UTC launched from the Air Force Eastern Test Range (AFETR). Debris objects in space refer to the collection of defunct objects orbiting the Earth. Examples of debris include non-operational satellites, rocket bodies, and fragments generated from explosions, collisions, or faulty payload assembly.

Loading next visibility...
Identifier
417, 1961-015ES
Orbit
LEO
Country
Flag of USUS
Related business
Manufacturer
Unknown
Mission
Spacecraft
Bus & Motor
Unknown
Mass
Unknown
Launch date (UTC)
1961-06-29 (65 years ago)
Launch vehicle
Unknown
Launch site
Air Force Eastern Test Range (AFETR)
Object type
Payload
Rocket body
Debris
Shape & HBR
Unknown shape, 0.1 m
Radar Cross Section
Medium (>0.1 m² and <1 m²)

Expand to show TLE details & history
Last TLE update: 2 days ago

TLE from 2 days ago
0 THOR ABLESTAR DEB
1   417U 61015ES  26171.33964133  .00000385  00000-0  21277-3 0  9992
2   417  66.7435 202.7555 0060822 101.0873 259.7068 14.20736034337942
Epoch: 2026-06-20T08:09Z
TLE epoch observation values (Epoch: 2026-06-20T08:09:05.010Z)
Latitude
-0.00008°
Longitude
171.92891°
Altitude
833.051 km
Speed
7.433 km/s
True Right ascension
13h 31m 01s
True Declination
0° 00' 00"
Sunlit
Object was in daylight at epoch
Visualization orbit readout
Latitude
Unknown
Longitude
Unknown
Altitude
Unknown
Speed
Unknown
Apparent Right ascension
Unknown
Apparent Declination
Unknown
Sunlit
N/A
Visualization observer readout
Local Sidereal Time
07:06:45
Azimuth
Unknown
Elevation
Unknown
Doppler factor
Unknown
Orbital elements
Apogee altitude
865.03 km
Perigee altitude
777.453 km
Semi-major axis
7,199.379 km
Eccentricity
0.00608
Inclination
66.7435°
RAAN
202.7555°
Arg. of periapsis
101.0873°
True anomaly
259.02199°
Mean anomaly
259.7068°
Eccentric anomaly
259.3643°
Mean motion
3.55304 °/min
Orbital period
101.32 mins
BSTAR
0.00021277

Documentation

Showing up to 5 results
|